Погода в Варламово

Россия / Новосибирская область     55°48′24″N   84°21′39″E
темп.,
°C
ветер,
м/с
пор.,
м/с
влажн.,
%
обл.,
%
осадки,
мм/ч
давл.,
гПа
погр.,
м
18 апреля, вс
вс1801:00−4ю4985100 0.0 1021179
04:00−3ююз4986100 0.0 1018282
07:00−1ююз51284100 0.0 1016451
10:00+1юз6138423 0.0 1014715
13:00+3зюз61182100 0.0 10131106
16:00+3юз51196100 0.6 1011770
19:00+3ююз61386100 0.8 1009706
22:00+2ю61396100 0.6 1004540
19 апреля, пн
пн1901:00+2юз71497100 1.8 1000785
04:000зюз815875 0.6 9981025
07:00−8сз101689100 1.4 10061167
10:00−8сз91372100 0.3 10141154
13:00−6сз7955100 0.3 10191616
16:00−5сз7855100 0.0 10211844
19:00−6сз6862100 0.1 10231517
22:00−7зсз476838 0.1 10241076
20 апреля, вт
вт2001:00−7зсз5775100 0.1 10241081
04:00−7сз567180 0.1 1025975
07:00−8сз477579 0.1 1026706
10:00−6сз4564100 0.0 1027967
13:00−3зсз4551100 0.0 10261289
16:00−1зсз454196 0.0 10251742
19:00−2зсз464340 0.0 10251667
22:00−4зюз226368 0.0 102436
21 апреля, ср
ср2101:00−3юз3759100 0.0 1023612
04:00−3юз4753100 0.0 10221224
07:00−4ююз4871100 0.0 1021922
10:00−3ююз5680100 0.1 1022782
13:00−1ю3474100 0.5 1022962
16:000ююв2265100 0.4 1023935
19:00+1в2263100 0.6 1024895
22:00−2св247680 0.1 102784
22 апреля, чт
чт2201:00−3св36839 0.1 1028184
04:00−3св38855 0.0 1030343
07:00−3ссв49805 0.0 1033333
10:000св576022 0.0 10351133
13:00+2св5742100 0.1 10372051
16:00+3ссв564098 0.0 10381926
19:00+2ссв575051 0.0 10401045
22:00−2ссв397642 0.1 1043254